Regional Weather Roundup
Issued by NWS Little Rock, AR

Home | Current Version | Previous Version | Text Only | Print | Product List | Glossary On
Versions: 1 2 3 4 5 6 7 8 9 10 11 12 13 14 15 16 17 18 19 20 21 22 23 24 25 26 27 28 29 30 31 32 33 34 35 36 37 38 39 40 41 42 43 44 45 46 47 48 49 50
000
ASUS44 KLZK 240805
RWRLZK

WEATHER ROUNDUP FOR ARKANSAS
NATIONAL WEATHER SERVICE LITTLE ROCK AR
200 AM CST MON FEB 24 2020

NOTE: "FAIR" INDICATES FEW OR NO CLOUDS BELOW 12,000 FEET WITH NO
SIGNIFICANT WEATHER AND/OR OBSTRUCTIONS TO VISIBILITY.

ARZ001-003-010-029-240900-
NORTHWEST ARKANSAS

CITY           SKY/WX    TMP DP  RH WIND       PRES   REMARKS
FAYETTEVILLE   CLOUDY    51  49  92 S8        29.73F
FORT SMITH     CLOUDY    49  49 100 NE8       29.75F
HARRISON       CLOUDY    45  44  97 SE10      29.77F
BENTONVILLE    LGT RAIN  47  47 100 SE9       29.74F
ROGERS         LGT RAIN  47  46  97 SE7       29.73F
SILOAM SPGS    LGT RAIN  50  49  96 S10       29.72F
HIGHFILL       LGT RAIN  49  46  90 SE8       29.73F
$$

ARZ004-005-016-240900-
NORTH CENTRAL ARKANSAS

CITY           SKY/WX    TMP DP  RH WIND       PRES   REMARKS
BATESVILLE     LGT RAIN N/A N/A N/A SE7       29.86F
FLIPPIN        LGT RAIN  44  44 100 E6        29.82F
MTN HOME       LGT RAIN  43  43 100 SE8       29.80F
$$

ARZ040-041-240900-
WEST CENTRAL ARKANSAS

CITY           SKY/WX    TMP DP  RH WIND       PRES   REMARKS
MENA           CLOUDY    57  55  94 S7        29.77F
MOUNT IDA      RAIN      56  53  90 VRB7      29.76F
$$

ARZ009-017-025-026-028-240900-
NORTHEAST ARKANSAS

CITY           SKY/WX    TMP DP  RH WIND       PRES   REMARKS
JONESBORO      RAIN      46  44  93 SE13      29.90F FOG
NEWPORT        RAIN      46  45  96 SE12      29.89F
WALNUT RIDGE   RAIN      45  45 100 SE12      29.89F FOG
BLYTHEVILLE    RAIN      46  42  86 S10       29.95F
$$

ARZ022-023-033-042-044-240900-
CENTRAL ARKANSAS

CITY           SKY/WX    TMP DP  RH WIND       PRES   REMARKS
LITTLE ROCK    LGT RAIN  49  48  97 S12       29.85F FOG
N LITTLE ROCK    N/A     48  47  97 S9        29.87F
BENTON         CLOUDY    52  52 100 S9        29.83F FOG
JACKSONVILLE   CLOUDY    49  49  99 SE12      29.83F
CONWAY         CLOUDY    50  50 100 SE17      29.81F FOG
SEARCY         LGT RAIN  48  48 100 SE9       29.86F
HOT SPRINGS    LGT RAIN  53  50  89 E3        29.82F
RUSSELLVILLE   CLOUDY    50  47  89 E6        29.78F
CLINTON        LGT RAIN  46  46 100 NE3       29.84F
$$

ARZ036-240900-
EAST ARKANSAS

CITY           SKY/WX    TMP DP  RH WIND       PRES   REMARKS
WEST MEMPHIS   LGT RAIN  47  46  97 SE15      29.92F FOG
$$

ARZ050-053-066-070-073-240900-
SOUTHWEST ARKANSAS

CITY           SKY/WX    TMP DP  RH WIND       PRES   REMARKS
ARKADELPHIA    LGT RAIN  52  32  46 SE5       29.83F
CAMDEN         DRIZZLE   52  50  93 SE8       29.87F
TEXARKANA      CLOUDY    56  54  93 S15G25    29.81F
EL DORADO      CLOUDY    55  55 100 S6        29.88F
DE QUEEN       CLOUDY    57  54  89 S7        29.77F
$$

ARZ056-057-069-240900-
SOUTHEAST ARKANSAS

CITY           SKY/WX    TMP DP  RH WIND       PRES   REMARKS
PINE BLUFF     CLOUDY    50  47  89 SE9       29.88F
STUTTGART      LGT RAIN  49  48  97 S16       29.89F
MONTICELLO     CLOUDY    51  49  92 SE5       29.90F

$$





USA.gov is the U.S. government's official web portal to all federal, state and local government web resources and services.